Location: ??????
(42.0089°N, 44.3281°E)
Time: 07:44:43
(UTC+00:00)

X-37B - Visible Passes

Search period start: 24 January 2022 00:00
Search period end: 03 February 2022 00:00
Orbit: 334 x 337 km, 45.0° (Epoch: 11 January)

Date Brightness Start Highest point End Pass type
(mag) Time Alt. Az. Time Alt. Az. Time Alt. Az.
25 Jan 2.7 15:27:42 10° S 15:28:56 13° SSE 15:28:56 13° SSE visible
26 Jan 1.7 15:46:46 10° SW 15:48:46 28° S 15:48:46 28° S visible
27 Jan 2.0 16:06:50 10° WSW 16:08:33 32° WSW 16:08:33 32° WSW visible
28 Jan 1.5 14:52:12 10° SW 14:54:45 31° SSE 14:57:01 12° E visible
28 Jan 3.3 16:27:20 10° W 16:28:15 18° W 16:28:15 18° W visible
29 Jan 0.3 15:12:16 10° WSW 15:15:05 74° SSE 15:16:41 23° ENE visible
30 Jan 0.5 15:32:45 10° W 15:35:33 59° NNW 15:36:18 40° NE visible
31 Jan 1.1 15:53:23 10° WNW 15:55:54 42° NNW 15:55:54 42° NNW visible
01 Feb 2.4 16:13:58 10° WNW 16:15:30 26° NW 16:15:30 26° NW visible
02 Feb 1.0 14:58:49 10° WNW 15:01:32 43° N 15:03:53 13° ENE visible
02 Feb 3.4 16:34:27 10° WNW 16:35:07 15° WNW 16:35:07 15° WNW visible
